SCP
0 0 0 0 0 0 0 0 0 0 0 0 0 0 0 0 0 0 1 1 1 2 2 2 2 2 2 2 2 2 2 2 1 1 1 1 1 1 1 1 1 1 1 1
0 0 0 0 0 0 0 0 0 0 0 0 0 0 0 0 0 0 1 1 1 2 2 2 2 2 2 2 2 2 2 2 1 1 1 1 1 1 1 1 1 1 1 1
0 0 0 0 0 0 0 0 0 0 0 0 0 0 0 0 0 0 1 1 1 2 2 2 2 2 2 2 2 2 2 2 1 1 1 1 1 1 1 1 1 1 1 1
0 -0 0 0 0 0 0 0 0 0 0 0 0 0 0 0 0 0 0 1 1 1 2 2 3 3 2 2 2 2 2 2 2 2 1 1 1 1 1 1 1 1 1 1
0 0 0 0 0 0 0 0 0 0 0 0 0 0 0 0 0 0 0 1 1 1 2 2 3 3 2 2 2 2 2 2 2 2 2 2 2 1 1 1 1 1 1 1
0 0 0 0 0 0 0 0 0 0 0 0 0 0 0 0 0 0 0 1 1 1 1 2 2 2 2 2 2 2 2 2 2 2 2 2 2 2 1 1 1 1 1 1
0 0 0 0 0 0 0 0 0 0 0 0 0 0 0 0 0 0 0 1 1 1 1 2 2 2 2 2 2 2 2 2 2 2 2 2 2 2 1 1 1 1 1 1
0 0 0 0 0 0 0 0 0 0 0 0 0 0 0 0 0 0 0 1 1 1 1 2 2 2 2 2 2 2 2 2 2 2 2 2 2 1 1 1 1 1 1 1
0 0 0 0 0 0 0 0 0 0 0 0 0 0 0 0 0 0 0 1 1 1 1 1 2 2 2 2 2 2 2 2 2 2 2 1 1 1 1 1 1 1 1 1
0 0 0 0 0 0 0 0 0 0 0 0 0 0 0 0 0 0 0 1 1 1 1 1 2 2 2 2 2 2 2 2 2 1 1 1 1 1 1 1 1 1 1 1
0 0 0 0 0 0 0 0 0 0 0 0 0 0 0 0 0 0 0 1 1 1 1 1 1 2 2 2 2 2 1 1 1 1 1 1 1 1 1 1 1 1 1 1
0 0 0 0 0 0 0 0 0 0 0 0 0 0 0 0 0 0 1 1 1 1 1 1 1 2 1 1 1 1 1 1 1 1 1 1 1 1 1 1 1 1 1 1
0 0 0 0 0 0 0 0 0 0 0 0 0 0 0 0 0 1 1 1 1 1 1 1 1 1 1 1 1 1 1 1 1 1 1 1 1 1 1 1 1 1 1 1
0 0 0 0 0 0 0 0 0 0 0 0 0 0 0 0 1 1 1 1 1 1 1 1 1 1 1 1 1 1 1 1 1 1 1 1 1 1 1 1 1 1 1 1
0 0 0 0 0 0 0 0 0 0 0 0 0 0 0 1 1 1 1 1 1 1 1 1 1 1 1 1 1 1 1 1 1 1 1 1 1 1 1 1 1 1 1 1
0 0 0 0 0 0 0 0 0 0 0 0 0 0 1 1 1 1 1 1 1 1 1 1 1 1 1 1 1 1 1 1 1 1 1 1 1 1 1 1 1 1 1 0
0 0 0 0 0 0 0 0 0 0 0 0 0 1 1 1 1 1 1 1 1 1 1 1 1 1 1 1 1 1 1 1 1 1 1 1 1 1 1 1 1 1 0 0
0 0 0 0 0 0 0 0 0 0 0 0 1 1 1 1 1 1 1 1 1 1 1 1 1 1 1 1 1 1 1 1 1 1 1 1 1 1 1 0 0 0 0 0
0 0 0 0 0 0 0 0 0 0 1 1 1 1 1 1 1 1 1 1 1 1 1 1 1 1 1 1 1 1 1 1 1 1 1 1 0 0 0 0 0 0 0 0
0 0 0 0 0 0 0 0 0 0 1 1 1 1 1 1 1 1 1 1 1 1 1 1 1 1 1 1 1 1 1 1 1 1 1 0 0 0 0 0 0 0 0 0
0 0 0 0 0 0 0 0 1 1 1 1 1 1 1 1 1 1 1 1 1 1 1 1 1 1 1 1 1 1 1 1 1 0 0 0 0 0 0 0 0 0 0 0
0 0 0 0 0 0 1 1 1 1 1 1 1 1 1 1 1 1 1 1 1 1 1 1 1 1 1 1 1 1 0 0 0 0 0 0 0 0 0 0 0 0 0 0
0 0 0 0 1 1 1 1 1 1 1 1 1 1 1 1 1 1 1 1 1 1 1 1 1 1 1 0 0 0 0 0 0 0 0 0 0 0 0 0 0 0 0 0
0 1 1 1 1 1 1 1 1 1 1 1 1 1 1 1 1 1 1 1 1 1 1 1 1 0 0 0 0 0 0 0 0 0 0 0 0 0 0 0 0 0 0 0
1 1 1 1 1 1 1 1 1 1 1 1 1 1 1 1 1 1 1 1 1 1 0 0 0 0 0 0 0 0 0 0 0 0 0 0 0 0 0 0 0 0 0 0
1 1 1 1 1 1 1 1 1 1 1 1 1 1 1 1 1 1 1 1 1 1 0 0 0 0 0 0 0 0 0 0 0 0 0 0 0 0 0 0 0 0 0 0
Wind_Speed
15 14 16 17 19 19 18 15 13 9 7 9 11 10 8 9 9 10 11 13 14 14 16 15 16 16 14 13 13 12 11 11 9 8 8 6 6 5 4 5 7 8 7 7
15 20 19 18 18 19 19 17 15 8 7 8 9 10 10 9 10 9 11 12 14 16 16 16 15 15 15 13 13 13 12 12 11 7 6 5 6 5 5 4 6 8 7 7
22 16 20 20 19 18 17 16 15 11 7 8 9 12 12 11 10 10 10 11 13 16 17 18 17 16 15 15 15 13 13 11 11 9 6 5 4 4 5 5 6 7 7 7
20 21 16 18 18 17 14 15 14 12 10 8 11 11 10 10 10 10 11 11 13 13 16 17 17 16 15 14 14 12 12 12 11 10 9 10 8 8 7 6 6 7 7 7
17 19 19 17 17 16 14 13 12 11 10 11 12 12 8 10 11 10 10 11 12 12 15 17 17 15 14 14 13 12 11 11 11 10 10 9 9 7 6 6 7 8 7 7
19 17 17 16 14 14 13 12 10 10 10 13 15 14 8 7 9 10 10 10 10 11 12 15 15 14 13 13 12 12 12 11 11 11 11 10 10 8 7 7 7 7 6 7
19 18 16 15 16 16 15 11 8 10 11 13 15 13 5 5 7 8 9 10 11 11 12 13 14 14 13 13 12 11 12 11 11 12 11 11 10 9 8 8 7 8 7 7
18 17 18 16 17 14 16 16 12 10 10 10 12 9 5 8 9 8 7 8 9 10 11 13 13 13 12 13 12 11 11 11 11 11 11 10 10 8 7 8 7 7 6 7
14 16 18 17 16 16 18 17 18 13 12 8 6 4 6 9 10 11 11 9 9 9 9 10 11 11 11 11 11 11 10 10 10 10 9 9 9 9 8 7 7 6 5 6
13 12 16 17 15 18 17 17 12 13 10 10 7 9 9 13 11 11 10 10 9 9 9 9 9 9 8 8 8 8 9 9 9 9 9 9 9 8 7 7 7 6 6 6
18 11 13 17 17 18 18 18 15 10 10 10 5 3 3 10 11 10 10 9 9 10 9 9 8 8 7 7 7 7 7 8 7 7 7 6 7 7 7 7 7 7 6 6
16 11 10 15 15 16 17 17 16 11 10 8 4 3 2 6 8 9 11 10 9 9 9 9 9 7 6 6 6 6 7 7 7 7 6 6 6 6 7 7 6 6 6 6
12 10 10 12 14 16 16 17 16 14 9 9 7 5 7 7 8 9 11 11 10 9 9 8 8 7 6 5 4 4 5 6 6 6 6 5 5 5 5 5 5 5 5 5
9 9 10 11 11 15 17 17 17 15 11 10 8 8 8 8 8 8 10 11 11 11 9 9 7 6 5 5 4 4 3 4 4 5 5 5 4 4 3 3 4 4 4 5
9 12 12 13 11 11 14 17 18 17 14 11 7 9 9 9 8 8 10 11 11 11 10 9 7 6 5 5 4 3 3 3 4 5 4 4 4 4 3 3 4 3 3 4
8 8 10 13 13 11 13 15 17 16 14 12 7 3 6 11 9 8 9 11 11 10 9 9 7 6 5 4 3 3 4 4 4 4 4 4 3 3 4 4 4 3 3 3
9 7 9 11 11 10 11 13 13 12 12 10 7 5 5 9 10 9 9 10 11 10 9 8 7 5 4 4 4 3 4 4 4 4 4 4 4 4 4 4 4 3 3 2
7 6 6 8 9 13 9 9 10 9 8 6 7 11 9 9 10 8 9 10 10 10 9 7 6 6 5 4 4 4 4 4 5 4 4 4 4 4 4 4 4 3 3 3
7 7 7 7 9 10 8 7 7 6 3 3 9 12 12 12 11 9 9 10 10 10 9 7 6 6 5 4 4 5 5 5 5 5 4 4 3 3 4 4 4 3 4 4
9 7 7 6 7 7 3 2 1 4 4 4 7 9 11 11 7 8 10 11 11 10 9 8 7 7 6 5 5 6 6 6 5 5 4 4 4 4 4 5 5 5 5 6
12 10 10 8 7 4 4 3 2 6 5 6 6 7 7 5 7 11 12 12 11 10 10 8 7 7 5 5 6 6 6 6 5 5 5 6 6 5 5 5 6 7 7 7
10 10 10 8 7 3 4 1 3 5 7 7 8 9 11 13 14 13 12 11 11 10 10 9 7 7 6 6 6 7 6 6 6 7 8 8 7 6 6 7 7 7 7 8
4 1 1 1 2 3 6 8 6 6 7 7 8 11 12 14 13 11 11 11 10 10 9 8 8 7 7 7 7 7 6 6 8 9 9 9 9 9 8 8 8 6 6 6
3 2 3 5 6 5 5 7 6 7 8 8 9 10 12 14 13 12 11 10 9 9 9 8 9 9 8 8 8 7 7 7 9 10 9 9 9 10 10 8 8 7 6 5
2 0 2 5 6 5 6 6 7 8 9 10 10 11 12 14 13 12 10 10 9 9 9 8 9 9 9 9 9 8 7 8 10 10 10 10 10 10 11 11 9 9 8 6
3 2 1 3 4 4 6 5 7 9 9 9 11 12 12 12 12 12 11 10 9 9 9 9 10 10 10 9 9 8 7 8 9 9 8 8 8 8 9 10 11 16 13 16
Wind_Direction
206 219 224 225 226 242 258 266 262 245 200 208 229 240 224 210 208 188 178 172 171 171 171 168 168 169 169 166 166 171 176 170 170 176 181 185 184 185 187 181 168 168 178 177
207 223 231 237 237 238 250 261 266 254 204 216 234 239 238 220 211 202 184 178 175 171 168 168 170 172 174 172 172 175 180 178 180 181 183 187 182 183 189 189 167 174 181 179
219 221 220 233 240 239 241 248 254 251 231 225 248 245 236 220 208 198 189 180 180 176 171 171 175 177 177 178 180 183 183 182 185 180 180 186 177 188 193 186 174 183 185 186
229 237 226 221 231 236 238 243 251 253 244 232 231 246 223 206 205 200 192 186 183 181 173 173 177 179 181 182 182 183 182 184 187 184 189 189 190 193 196 185 178 185 191 191
223 228 233 228 227 230 239 241 243 250 252 255 245 250 229 195 199 203 196 193 185 180 175 173 177 178 182 183 183 183 182 186 187 191 196 195 200 200 194 186 180 184 189 195
235 226 225 230 228 228 232 236 236 246 251 244 245 249 241 208 191 200 196 189 178 174 173 169 170 172 180 182 183 183 184 188 189 195 201 203 205 203 197 190 183 186 187 195
229 232 220 221 220 215 219 216 211 216 226 237 233 238 224 169 169 195 200 181 171 171 166 164 168 172 178 182 183 184 184 190 193 198 204 206 208 206 201 198 192 192 192 193
214 221 216 211 219 211 211 217 221 219 225 231 223 222 188 147 148 162 177 168 166 166 162 164 166 171 178 181 182 183 187 192 196 202 204 207 208 210 207 206 203 200 201 198
213 216 211 209 212 219 209 220 235 251 267 252 212 192 162 158 158 157 165 160 159 154 156 156 160 167 175 178 182 186 187 191 195 202 202 206 208 210 210 206 208 207 207 204
244 224 206 198 205 220 225 217 230 245 263 263 217 196 195 171 170 165 161 156 147 147 154 152 150 156 165 173 175 181 183 191 195 200 201 205 206 210 207 208 212 206 204 206
238 240 212 195 203 211 218 220 228 235 247 254 237 221 199 161 160 161 155 148 148 152 150 145 142 145 150 155 165 172 177 183 190 197 200 207 201 204 204 207 210 206 200 198
227 236 221 202 202 220 223 224 223 233 238 257 257 217 164 147 154 156 141 138 137 138 136 132 132 137 142 148 158 164 171 179 184 189 191 199 199 198 201 205 204 197 194 196
220 236 225 206 200 212 225 223 227 229 240 244 245 175 154 154 155 142 134 129 128 125 120 119 121 126 129 133 136 145 163 173 175 174 179 187 195 196 196 193 189 189 190 193
225 230 238 223 205 200 216 222 221 224 229 234 230 162 166 155 138 131 128 130 131 125 120 119 116 115 115 117 124 138 152 159 160 161 168 174 180 181 182 175 173 181 186 188
225 225 237 256 250 217 216 219 220 223 227 234 208 179 169 155 145 141 135 134 131 129 127 122 120 115 116 115 116 125 131 129 140 149 157 159 162 163 169 166 163 167 177 180
221 239 235 249 255 236 223 220 219 221 223 232 216 180 138 131 131 140 142 139 133 130 128 125 123 120 117 121 129 120 113 108 113 129 138 139 142 146 145 145 147 146 149 158
208 228 239 241 237 238 228 221 223 222 222 227 207 164 139 135 141 144 144 136 131 126 122 119 115 111 106 107 105 110 115 115 111 111 108 115 130 135 135 146 139 139 140 137
226 225 243 247 236 231 233 221 225 218 221 219 154 138 149 134 121 117 119 119 119 118 113 110 110 102 93 94 103 103 105 108 108 106 101 103 117 122 124 124 127 128 123 119
219 222 237 241 240 234 227 223 218 189 181 112 127 131 130 127 122 110 106 109 106 106 103 96 94 93 84 80 89 98 94 92 92 90 84 81 90 102 109 115 115 117 115 106
203 211 234 232 232 232 236 245 253 168 160 97 113 131 140 156 155 126 114 109 108 104 101 98 94 91 82 74 79 89 90 85 82 83 81 76 78 84 86 95 100 100 101 96
198 202 221 235 237 238 296 289 227 200 142 110 125 135 147 136 97 119 118 111 109 105 102 98 92 88 80 76 82 87 84 82 82 87 83 77 79 82 81 87 93 99 99 96
203 209 213 225 230 225 342 13 53 74 93 111 119 116 109 106 106 111 112 111 111 108 104 100 93 87 81 81 85 86 81 78 83 83 79 73 70 72 79 85 87 92 97 96
213 227 96 68 99 76 51 73 74 81 93 102 103 109 115 115 114 117 113 107 102 99 98 98 97 90 82 82 86 88 82 81 86 84 79 76 73 67 65 71 77 80 82 90
161 114 138 115 114 99 78 80 74 80 91 99 104 113 118 119 123 117 110 105 100 96 93 93 94 90 82 78 80 84 90 93 92 91 86 82 78 71 61 57 57 59 55 75
346 136 128 135 131 107 88 85 88 86 93 102 103 110 117 118 120 117 112 108 103 99 93 90 89 88 85 81 80 82 90 99 98 96 94 89 84 83 74 65 53 61 51 48
336 23 91 124 131 122 109 92 101 97 94 104 109 109 111 114 117 116 110 105 103 100 98 96 91 89 86 83 80 82 90 99 102 102 101 100 99 96 94 92 78 58 63 60